FW3015 Weather Reports


time (UTC)temp
F
wind
direction
speed
knots
gust
knots
rain 1hr
in
rain 24hr
in
rain mn
in
humidity
%
barometer
mb
20260504231503 56 227 0.9 4.3 0.00 0.02 0.02 70 1005.4
20260504231003 56 228 0.9 4.3 0.00 0.02 0.02 70 1005.4
20260504230504 57 229 0.9 4.3 0.00 0.02 0.02 70 1005.4
20260504230003 57 230 0.9 4.3 0.00 0.02 0.02 69 1005.4
20260504225714 57 230 0.9 4.3 0.00 0.02 0.02 68 1005.4
20260504225003 57 215 1.7 7.8 0.00 0.02 0.02 66 1005.2
20260504224503 57 206 0.9 7.8 0.00 0.02 0.02 66 1005.1
20260504224003 58 214 0.9 6.1 0.00 0.02 0.02 66 1005.0
20260504223712 58 213 1.7 7.8 0.00 0.02 0.02 66 1005.1
20260504223003 58 207 1.7 7.8 0.00 0.02 0.02 64 1005.1
20260504222503 58 229 1.7 7.0 0.00 0.02 0.02 65 1005.1
20260504222003 59 264 0.9 6.1 0.00 0.02 0.02 64 1005.3
20260504221504 59 250 1.7 7.0 0.00 0.02 0.02 64 1005.2
20260504221003 60 243 1.7 7.0 0.00 0.02 0.02 63 1005.0
20260504220503 60 248 1.7 6.1 0.00 0.02 0.02 63 1005.0
20260504220003 60 252 1.7 5.2 0.00 0.02 0.02 63 1004.9
20260504215503 60 247 0.9 5.2 0.00 0.02 0.02 63 1004.9
20260504215003 60 228 1.7 7.8 0.00 0.02 0.02 63 1004.8
20260504214503 60 228 1.7 7.8 0.00 0.02 0.02 63 1004.9
20260504214003 60 236 2.6 7.0 0.00 0.02 0.02 63 1004.9
20260504213503 60 237 2.6 8.7 0.00 0.02 0.02 62 1004.8
20260504213004 60 239 2.6 8.7 0.00 0.02 0.02 62 1004.8
20260504212503 60 229 2.6 7.8 0.00 0.02 0.02 63 1004.8
20260504212213 60 230 2.6 7.8 0.00 0.02 0.02 62 1004.8
20260504211503 60 250 1.7 4.3 0.00 0.02 0.02 65 1004.7
20260504211004 60 254 1.7 7.8 0.00 0.02 0.02 64 1004.7
20260504210503 60 244 1.7 7.8 0.00 0.02 0.02 63 1004.8
20260504210004 61 233 1.7 6.1 0.00 0.02 0.02 64 1004.6
20260504205503 61 238 1.7 6.1 0.00 0.02 0.02 63 1004.5
20260504205003 61 255 2.6 7.0 0.00 0.02 0.02 63 1004.6
20260504204503 61 258 2.6 7.8 0.00 0.02 0.02 64 1004.8
20260504204003 60 248 3.5 8.7 0.00 0.02 0.02 65 1004.8
20260504203504 60 239 3.5 8.7 0.00 0.02 0.02 65 1004.6
20260504203003 60 230 3.5 9.6 0.00 0.03 0.02 66 1004.6
20260504202503 59 236 2.6 9.6 0.00 0.03 0.02 68 1004.6
20260504202003 59 246 2.6 7.8 0.00 0.03 0.02 69 1004.7
20260504201713 58 254 1.7 5.2 0.00 0.03 0.02 69 1004.6
20260504201003 58 260 1.7 8.7 0.00 0.03 0.02 70 1004.6
20260504200503 58 248 2.6 8.7 0.00 0.03 0.02 69 1004.5
20260504200003 58 242 2.6 8.7 0.00 0.03 0.02 69 1004.5
20260504195503 58 226 2.6 8.7 0.00 0.03 0.02 70 1004.7
20260504195003 58 225 2.6 7.8 0.00 0.03 0.02 70 1004.6
20260504194503 57 242 2.6 7.8 0.00 0.04 0.02 73 1004.6
20260504194003 57 224 2.6 7.8 0.00 0.04 0.02 74 1004.8
20260504193503 56 236 2.6 7.8 0.00 0.04 0.02 77 1004.7
20260504193003 55 254 1.7 7.8 0.01 0.04 0.02 76 1004.7
20260504192503 54 238 1.7 7.8 0.01 0.04 0.02 77 1004.9
20260504192003 54 224 2.6 7.8 0.01 0.04 0.02 78 1004.8
20260504191503 54 222 3.5 9.6 0.01 0.04 0.02 77 1004.9
20260504191003 54 220 2.6 9.6 0.02 0.05 0.02 77 1005.0
20260504190504 54 212 2.6 10.4 0.02 0.05 0.02 80 1005.1
20260504190003 54 208 3.5 10.4 0.02 0.05 0.02 79 1005.2
20260504185713 54 214 2.6 7.8 0.02 0.05 0.02 78 1005.3
20260504185003 54 242 1.7 8.7 0.02 0.06 0.02 78 1005.4
20260504184503 54 243 1.7 9.6 0.02 0.06 0.02 78 1005.5
20260504184003 54 243 1.7 9.6 0.02 0.06 0.02 76 1005.7
20260504183715 54 227 0.9 6.1 0.02 0.06 0.02 77 1005.8
20260504183003 54 232 0.9 6.1 0.01 0.06 0.01 76 1005.7
20260504182503 54 240 0.9 6.1 0.01 0.06 0.01 75 1005.7
20260504182003 54 247 0.9 5.2 0.01 0.07 0.01 74 1005.7
20260504181503 54 221 0.9 6.1 0.01 0.07 0.01 73 1005.6
20260504181213 54 225 1.7 6.1 0.00 0.07 0.00 71 1005.7
20260504180505 54 254 2.6 9.6 0.00 0.08 0.00 71 1005.4
20260504180004 54 246 2.6 9.6 0.00 0.08 0.00 69 1005.4
20260504175714 54 241 2.6 7.8 0.00 0.09 0.00 68 1005.4
20260504175004 54 239 2.6 10.4 0.00 0.10 0.00 68 1005.4
20260504174503 54 227 1.7 9.6 0.00 0.12 0.00 68 1005.4
20260504174004 54 258 1.7 9.6 0.00 0.13 0.00 70 1005.3
20260504173503 55 264 1.7 9.6 0.00 0.13 0.00 70 1005.3
20260504173003 55 227 1.7 9.6 0.00 0.14 0.00 69 1005.2
20260504172503 56 214 2.6 8.7 0.00 0.14 0.00 67 1004.9
20260504172003 56 228 2.6 9.6 0.00 0.15 0.00 65 1004.9
20260504171714 57 245 2.6 9.6 0.00 0.15 0.00 63 1004.9
20260504171003 57 257 3.5 9.6 0.00 0.16 0.00 59 1004.9
20260504170503 58 232 4.3 9.6 0.00 0.16 0.00 58 1004.8
20260504150503 58 218 4.3 11.3 0.00 0.28 0.00 52 1005.8
20260504141003 57 238 1.7 7.8 0.00 0.37 0.00 53 1006.1
20260504140503 57 301 1.7 7.0 0.00 0.37 0.00 53 1006.2
20260504130503 53 306 5.2 13.0 0.00 0.43 0.00 55 1006.8
20260504130215 53 310 5.2 10.4 0.00 0.43 0.00 56 1006.8
20260504120213 48 300 4.3 9.6 0.00 0.54 0.00 64 1007.2
20260504110503 43 293 1.7 7.0 0.00 0.66 0.00 78 1007.1
20260504110213 42 296 1.7 7.0 0.00 0.66 0.00 78 1007.0
20260504082003 36 288 1.7 7.0 0.00 0.86 0.00 85 1005.8
20260504081713 36 288 2.6 7.0 0.00 0.86 0.00 85 1005.9
20260504081003 36 289 1.7 6.1 0.00 0.87 0.00 85 1005.8
20260504080503 36 289 1.7 6.1 0.00 0.87 0.00 85 1005.8
20260504080213 36 291 1.7 7.8 0.00 0.88 0.00 85 1005.8
20260504050503 38 309 3.5 7.0 0.00 1.05 0.00 84 1004.4
20260504050003 38 316 3.5 7.0 0.00 1.05 0.00 83 1004.5
20260504045503 39 318 3.5 7.8 0.00 1.05 0.00 83 1004.4
20260504045003 39 315 2.6 7.8 0.00 1.05 0.00 82 1004.4
20260504044504 39 307 2.6 6.1 0.00 1.05 0.00 81 1004.3
20260504044003 40 309 3.5 12.2 0.00 1.06 0.00 80 1004.4
20260504043503 40 317 4.3 12.2 0.00 1.06 0.00 79 1004.3
20260504043003 40 317 3.5 7.8 0.00 1.06 0.00 79 1004.4
20260504042504 40 321 4.3 7.8 0.00 1.06 0.00 79 1004.3
20260504042003 40 328 3.5 7.8 0.00 1.06 0.00 78 1004.4
20260504041503 41 319 3.5 10.4 0.00 1.06 0.00 78 1004.3
20260504041003 41 315 4.3 10.4 0.00 1.06 0.00 77 1004.3
20260504040503 41 315 5.2 10.4 0.00 1.06 0.00 76 1004.1
20260504040004 41 316 6.1 11.3 0.00 1.06 0.00 74 1004.1
20260504035503 41 318 6.1 11.3 0.00 1.06 1.06 75 1004.1
20260504035004 41 317 6.1 11.3 0.00 1.06 1.06 75 1004.0
20260504034504 41 318 7.0 10.4 0.00 1.06 1.06 76 1004.0
20260504034003 41 319 6.1 10.4 0.00 1.06 1.06 76 1003.9
20260504033503 41 319 6.1 9.6 0.00 1.06 1.06 77 1003.9
20260504033003 41 319 6.1 11.3 0.00 1.06 1.06 76 1003.9
20260504032503 41 317 6.1 11.3 0.00 1.06 1.06 76 1003.8
20260504032214 41 316 6.1 11.3 0.00 1.06 1.06 76 1003.7
20260504031503 41 317 6.1 11.3 0.00 1.06 1.06 77 1003.7
20260504031214 41 318 6.1 13.9 0.00 1.06 1.06 77 1003.6
20260504030503 42 317 6.1 13.9 0.00 1.06 1.06 77 1003.6
20260504030003 42 316 5.2 10.4 0.00 1.06 1.06 77 1003.5
20260504025503 42 320 5.2 9.6 0.00 1.06 1.06 78 1003.5
20260504025003 42 319 5.2 10.4 0.00 1.06 1.06 78 1003.4
20260504024503 42 321 5.2 10.4 0.00 1.06 1.06 77 1003.5
20260504024004 42 324 5.2 10.4 0.00 1.06 1.06 77 1003.4
20260504023713 42 322 6.1 10.4 0.00 1.06 1.06 77 1003.5
20260504023214 42 322 6.1 12.2 0.00 1.06 1.06 76 1003.4
20260504022713 42 321 6.1 12.2 0.00 1.06 1.06 76 1003.4
20260504022004 43 323 7.0 12.2 0.00 1.06 1.06 76 1003.3
20260504021503 43 324 7.8 13.9 0.00 1.06 1.06 77 1003.4
20260504021003 43 323 7.8 13.9 0.00 1.06 1.06 77 1003.2
20260504020503 43 322 7.8 13.0 0.00 1.06 1.06 78 1003.2
20260504020003 43 323 7.8 14.8 0.00 1.06 1.06 79 1003.2
20260504015503 42 324 7.0 14.8 0.00 1.06 1.06 82 1003.1
20260504015003 42 321 7.0 13.0 0.00 1.06 1.06 83 1002.9
20260504014503 42 324 7.8 14.8 0.00 1.06 1.06 86 1002.9
20260504014003 42 329 7.0 14.8 0.00 1.06 1.06 90 1003.0
20260504013503 43 328 5.2 12.2 0.00 1.06 1.06 92 1002.9
20260504013003 43 324 4.3 10.4 0.00 1.06 1.06 92 1002.8
20260504012503 43 318 2.6 7.8 0.00 1.06 1.06 93 1002.8
20260504012003 43 315 2.6 6.1 0.00 1.06 1.06 93 1002.7
20260504011503 43 315 1.7 5.2 0.00 1.06 1.06 93 1002.7
20260504011003 44 315 1.7 5.2 0.00 1.06 1.06 93 1002.6
20260504010503 44 315 2.6 7.8 0.00 1.06 1.06 93 1002.6
20260504010003 44 317 3.5 7.8 0.00 1.06 1.06 93 1002.6
20260504005503 44 317 3.5 7.8 0.00 1.06 1.06 92 1002.4
20260504005004 44 315 3.5 7.8 0.00 1.06 1.06 92 1002.4
20260504004503 44 321 3.5 7.0 0.00 1.06 1.06 92 1002.4
20260504004213 44 326 3.5 7.8 0.00 1.06 1.06 92 1002.3
20260504003503 44 327 5.2 8.7 0.00 1.06 1.06 92 1002.2
20260504003213 44 326 5.2 8.7 0.00 1.06 1.06 92 1002.1
20260504002714 44 332 5.2 8.7 0.00 1.06 1.06 92 1001.9
20260504002003 44 335 7.0 11.3 0.00 1.06 1.06 92 1001.9
20260504001503 44 327 7.0 11.3 0.00 1.06 1.06 91 1001.8
20260504001003 44 329 6.1 9.6 0.00 1.06 1.06 91 1001.7
20260504000503 44 332 6.1 11.3 0.00 1.06 1.06 91 1001.8
20260504000004 44 330 7.0 11.3 0.00 1.06 1.06 91 1001.6
20260503235503 44 332 7.0 11.3 0.00 1.06 1.06 91 1001.6
20260503235003 44 340 7.8 12.2 0.00 1.06 1.06 91 1001.4
20260503234503 44 340 9.6 15.6 0.00 1.06 1.06 91 1001.4
20260503234003 44 343 10.4 15.6 0.00 1.06 1.06 91 1001.3
20260503233713 44 346 10.4 15.6 0.00 1.06 1.06 91 1001.2
20260503233003 44 346 10.4 14.8 0.00 1.06 1.06 91 1001.1
20260503232503 44 345 10.4 14.8 0.00 1.06 1.06 91 1001.1
20260503232003 44 346 11.3 15.6 0.00 1.06 1.06 91 1001.0